Regional Weather Roundup
Issued by NWS

Home | Current Version | Previous Version | Graphics & Text | Print | Product List | Glossary Off
Versions: 1 2 3 4 5 6 7 8 9 10 11 12 13 14 15 16 17 18 19 20 21 22 23 24 25 26 27 28 29 30 31 32 33 34 35 36 37 38 39 40 41 42 43 44 45 46 47 48 49 50

000
ASUS43 KMPX 171601
RWRMN
WEATHER ROUNDUP FOR MINNESOTA
NATIONAL WEATHER SERVICE TWIN CITIES/CHANHASSEN MN
1100 AM CDT THU AUG 17 2017


NOTE: "FAIR" INDICATES FEW OR NO CLOUDS BELOW 12,000 FEET WITH NO
SIGNIFICANT WEATHER AND/OR OBSTRUCTIONS TO VISIBILITY. N/A MEANS
CURRENT SKY AND/OR WEATHER CONDITIONS ARE NOT AVAILABLE.

MNZ060>063-068>070-171700-
   Twin Cities Metro

CITY           SKY/WX    TMP DP  RH WIND       PRES   REMARKS
TWIN CITIES    CLOUDY    66  62  87 NW20G28   29.62R
ST PAUL        CLOUDY    66  66 100 NW16      29.61R FOG
CRYSTAL        CLOUDY    65  60  84 NW15G21   29.62R
BLAINE         CLOUDY    66  66 100 NW20G28   29.62R
LAKEVILLE      DRIZZLE   63  63 100 NW14      29.64R
EDEN PRAIRIE   CLOUDY    67  62  84 NW20G25   29.63R
SOUTH ST PAUL  CLOUDY    66  66  99 NW12G22   29.60R FOG
LAKE ELMO      CLOUDY    68  64  88 NW13G22   29.61R
$$
MNZ001>005-007-008-013>017-022>024-027-028-171700-
   Northwest Minnesota

CITY           SKY/WX    TMP DP  RH WIND       PRES   REMARKS
BEMIDJI        DRIZZLE   61  60  96 N10       29.80R
HALLOCK        MOSUNNY   66  63  88 NE5       29.84F
ROSEAU         MOSUNNY   64  61  88 N9        29.83S
WARROAD        MOSUNNY   68  63  83 N7        29.83S
THIEF RVR FALL MOSUNNY   68  61  77 N13       29.83F
CROOKSTON      MOSUNNY   70  63  78 N8        29.83S
FOSSTON        CLOUDY    63  61  94 N7        29.83R
DETROIT LAKES  CLOUDY    63  59  88 N10G18    29.83R
MOORHEAD       PTSUNNY   66  61  82 N15       29.84S
PARK RAPIDS    CLOUDY    65  60  84 N14       29.78R
MAHNOMEN       CLOUDY    63  60  91 N10       29.82S
$$
MNZ006-009>011-018-025>026-171700-
   North Central Minnesota

CITY           SKY/WX    TMP DP  RH WIND       PRES   REMARKS
BAUDETTE       CLOUDY    64  58  80 N12       29.81R
FLAG ISLAND    CLOUDY    66  55  68 N5        29.81S
INTL FALLS     LGT RAIN  60  58  92 N8        29.79R
WASKISH        CLOUDY    61  59  94 N6        29.80S
BIG FORK       LGT RAIN  63  61  94 N5        29.76S
LONGVILLE      CLOUDY    63  61  94 NW3       29.75R
GRAND RAPIDS   LGT RAIN  61  59  93 N10       29.75R
CRANE LAKE     LGT RAIN  59  57  94 N6        29.76S
ORR            LGT RAIN  61  57  88 N3        29.72S
COOK           HVY RAIN  61  59  94 N3        29.73S
WALKER         CLOUDY    60  59  96 NW7       29.78R FOG
$$
MNZ012-019>021-037-171700-
   Northeast Minnesota

CITY           SKY/WX    TMP DP  RH WIND       PRES   REMARKS
DULUTH         LGT RAIN  60  60 100 N10       29.64F FOG
ELY            LGT RAIN  59  59 100 N7        29.70S
HIBBING        HVY RAIN  59  58  96 N8        29.71R FOG
EVELETH        HVY RAIN  60  57  90 N5        29.71S
DULUTH HARBOR  LGT RAIN  63  61  94 NE24G32   29.62S
TWO HARBORS    DRIZZLE   64  61  88 NE6       29.61F
SILVER BAY     DRIZZLE   63  63 100 NE7       29.62S
GRAND MARAIS     N/A     65  61  87 NE10G21   29.62F
$$
MNZ029>031-032-039>041-046>048-054>057-064-171700-
   West Central Minnesota

CITY           SKY/WX    TMP DP  RH WIND       PRES   REMARKS
FERGUS FALLS   CLOUDY    64  64 100 N13G21    29.81S
WHEATON        CLOUDY    64  59  82 NW14G20   29.85S
MORRIS         CLOUDY    64  63  94 NW18      29.80S
ALEXANDRIA     CLOUDY    65  63  93 NW13      29.79R
ELBOW LAKE     CLOUDY    63  62  97 NW13      29.81S
WADENA         DRIZZLE   63  63 100 N9        29.78R
GLENWOOD       CLOUDY    64  63  94 NW14G20   29.78R
APPLETON       CLOUDY    64  61  88 NW13G22   29.81R
BENSON         CLOUDY    64  61  88 N16G22    29.81R FOG
ORTONVILLE     CLOUDY    64  61  88 MISG      29.84R
MADISON        CLOUDY    64  64 100 NW17      29.83R
WILLMAR        CLOUDY    66  64  94 NW16G26   29.78R
$$
MNZ033>034-036-042>043-049>051-058-059-171700-
   Central Minnesota

CITY           SKY/WX    TMP DP  RH WIND       PRES   REMARKS
ST CLOUD       CLOUDY    64  62  93 NW12G22   29.69R
SAUK CENTRE    CLOUDY    66  62  87 NW16      29.76R
PAYNESVILLE    CLOUDY    68  64  85 NW14G23   29.74S
AITKIN         CLOUDY    61  59  94 NW8       29.70R
PINE RIVER     CLOUDY    61  57  88 N12G17    29.78S
BRAINERD       CLOUDY    63  60  90 N13       29.73R
STAPLES        CLOUDY    63  61  94 N9        29.77R
LONG PRAIRIE   CLOUDY    63  61  94 W12       29.76R
LITTLE FALLS   CLOUDY    63  61  94 N9G17     29.72R
LITCHFIELD     PTSUNNY   70  66  88 NW14G20   29.73R
BUFFALO        CLOUDY    65  60  82 NW12G22   29.69R
MAPLE LAKE     CLOUDY    67  64  90 NW9G21    29.70R
HUTCHINSON     CLOUDY    67  65  96 NW10G21   29.72R
$$
MNZ037-044-045-052-053-171700-
   East Central Minnesota

CITY           SKY/WX    TMP DP  RH WIND       PRES   REMARKS
PRINCETON      DRIZZLE   64  63  94 NW14G23   29.66R
MORA           CLOUDY    61  59  94 N9        29.66R
RUSH CITY      RAIN      63  61  92 N12G20    29.62R
MOOSE LAKE     RAIN      61  59  94 N8        29.64S
HINCKLEY       LGT RAIN  61  61 100 N10       29.64R
CLOQUET        CLOUDY    61  57  88 N14       29.65F FOG
MCGREGOR       CLOUDY    61  59  94 N12       29.70R
$$
MNZ071>073-080-081-089-090-097-098-171700-
   Southwest Minnesota

CITY           SKY/WX    TMP DP  RH WIND       PRES   REMARKS
MONTEVIDEO     CLOUDY    64  64 100 N13G22    29.81R
GRANITE FALLS  CLOUDY    66  63  89 W17G24    29.82R
CANBY          CLOUDY    67  61  80 NW16G26   29.85S
MARSHALL       CLOUDY    64  61  90 NW22      29.82R
REDWOOD FALLS  CLOUDY    66  61  84 NW14G28   29.77R
OLIVIA         CLOUDY    64  61  88 NW15G25   29.76R
PIPESTONE      PTSUNNY   68  61  77 NW16      29.87S
WINDOM         MOSUNNY   64  61  88 W23G29    29.82R
WORTHINGTON    CLOUDY    65  60  84 W17       29.86R
JACKSON        CLOUDY    64  59  82 W17G26    29.83S
TRACY          CLOUDY    64  63  96 NW16G23   29.84R
SLAYTON        CLOUDY    63  56  76 NW16G22   29.85S
$$
MNZ065>067-074>077-082>085-091>093-171700-
   South Central Minnesota

CITY           SKY/WX    TMP DP  RH WIND       PRES   REMARKS
MANKATO        CLOUDY    68  64  87 W15G24    29.71R
NEW ULM        CLOUDY    68  63  83 W21G29    29.74R
ST JAMES       CLOUDY    66  63  88 W20G30    29.78R
FAIRMONT       CLOUDY    68  62  81 NW21G29   29.79R
GLENCOE        CLOUDY    69  66  91 NW16G31   29.68R
FARIBAULT      RAIN      64  63  94 W16G24    29.67R
OWATONNA       DRIZZLE   64  64 100 W16G28    29.68R
WASECA         CLOUDY    64  63  94 W14G23    29.71R FOG
ALBERT LEA     CLOUDY    66  66 100 W15G21    29.70R
$$
MNZ078>079-086>088-094>096-171700-
   Southeast Minnesota

CITY           SKY/WX    TMP DP  RH WIND       PRES   REMARKS
ROCHESTER      LGT RAIN  64  64 100 W15G32    29.65R FOG
RED WING       LGT RAIN  70  66  88 W9        29.57R
STANTON        DRIZZLE   66  64  91 W12       29.62R
DODGE CENTER   CLOUDY    64  63  94 W16G24    29.66R FOG
WINONA         CLOUDY    70  63  78 W13       29.59R
AUSTIN         CLOUDY    66  63  88 W20G25    29.68R
PRESTON        CLOUDY    66  63  89 W21G31    29.65S FOG
$$
ABBREVIATIONS USED IN REMARKS
   TC - TEMPERATURES IN CELSIUS
  WCI - WIND CHILL INDEX
   HX - HEAT INDEX
  VSB - VISIBILITY
$$



USA.gov is the U.S. government's official web portal to all federal, state and local government web resources and services.